User: anonymous
Location: Caltech
(34.1382°N, 118.1253°W)
Time: 02:08:39
(UTC-07:00)
Language:

Meteor 1-11 Rocket - Orbit

View from above orbital plane
View from above orbital plane
View from above satellite
View from above satellite

Ground track
Ground track

The orbit data is extracted from the following two-line orbital elements,

1 05918U 72022B   14205.74019586  .00000192  00000-0  10836-3 0  2174
2 05918 081.2365 269.7250 0059229 061.6709 077.2344 14.05712807169285
Epoch (UTC): 24 July 2014 17:45:52
Eccentricity: 0.0059229
inclination: 81.2365°
perigee height: 831 km
apogee height: 917 km
right ascension of ascending node: 269.7250°
argument of perigee: 61.6709°
revolutions per day: 14.05712807
mean anomaly at epoch: 77.2344°
orbit number at epoch: 16928

The dashed part of the orbit path shows where the satellite is in the earth's shadow,  

DLR